Vorticity
nan nan nan nan nan nan nan nan nan nan nan nan nan nan nan nan nan nan nan nan nan nan nan nan nan nan nan nan nan nan nan nan nan nan nan nan nan nan nan nan nan nan nan nan nan nan nan nan nan
nan 4 3 6 8 5 7 13 9 5 14 5 6 5 10 6 8 12 11 7 9 7 9 6 5 5 5 5 4 5 5 5 5 5 5 4 4 5 5 5 5 4 5 4 5 5 5 4 nan
nan 7 6 8 3 2 5 17 2 7 6 8 6 6 9 7 4 11 9 10 7 6 7 11 8 5 5 4 5 5 5 5 5 5 5 4 5 5 6 6 6 5 5 5 4 4 4 5 nan
nan 5 3 6 10 1 -2 12 14 5 2 8 4 4 -1 9 10 15 7 6 5 6 6 11 9 4 5 5 5 5 5 5 5 5 5 5 5 5 6 6 6 5 5 5 5 4 4 4 nan
nan 6 10 8 2 6 9 0 7 2 8 7 4 2 4 5 8 14 4 5 5 6 7 10 7 5 6 6 5 5 6 5 5 5 5 5 5 6 6 6 5 5 6 5 5 4 4 4 nan
nan 6 6 3 7 9 4 4 1 4 5 8 8 1 9 7 11 3 4 5 7 7 7 8 6 6 6 6 5 5 5 5 6 6 5 5 5 5 5 6 6 6 6 6 5 5 4 4 nan
nan 5 -0 4 12 7 7 2 6 7 5 11 9 5 10 8 14 3 2 4 5 7 7 5 8 5 5 7 6 6 5 6 5 6 6 6 6 6 6 6 6 5 5 6 6 5 4 4 nan
nan 3 7 7 4 6 8 6 14 6 3 9 10 19 12 12 7 5 3 3 3 5 6 4 10 8 5 5 7 7 6 6 6 6 6 7 6 6 5 5 7 6 6 6 5 6 5 4 nan
nan 3 9 7 5 7 8 11 5 5 11 5 -1 8 14 15 6 5 4 2 4 4 5 8 8 7 8 6 6 6 7 6 5 6 6 4 6 8 6 6 6 7 6 5 4 5 6 7 nan
nan 4 4 2 5 5 5 6 10 7 7 4 3 2 6 8 10 6 4 3 4 4 4 6 9 9 6 8 9 9 7 7 7 6 6 5 7 8 10 8 9 8 5 7 8 8 4 4 nan
nan -2 4 3 1 6 7 7 2 10 10 6 5 -3 -0 6 12 12 5 4 5 2 4 10 5 8 7 7 6 6 8 9 11 10 6 6 7 8 8 8 10 8 7 6 8 7 8 6 nan
nan 3 0 -2 7 11 7 5 7 8 2 10 7 5 1 -2 1 0 0 7 8 7 7 4 5 10 6 7 7 5 7 7 9 10 7 5 7 7 6 9 6 7 7 8 7 7 8 4 nan
nan 5 3 6 6 2 8 8 6 6 6 3 2 1 4 1 1 3 4 3 2 4 5 6 11 10 8 6 6 8 7 7 8 9 9 5 5 7 8 6 8 7 7 8 6 7 7 8 nan
nan 9 7 7 6 8 7 3 7 6 5 7 5 4 3 0 1 3 7 8 7 6 5 10 13 10 7 7 6 6 7 8 7 8 12 9 3 6 7 7 7 6 10 6 8 6 9 7 nan
nan 10 13 14 12 5 9 7 3 5 7 8 5 5 5 5 4 4 5 5 6 8 9 9 8 10 12 7 6 5 7 7 6 10 10 11 7 5 7 6 7 8 7 8 9 8 5 7 nan
nan 16 15 9 6 12 6 4 7 6 7 8 6 6 7 6 5 4 4 5 9 8 9 7 8 10 7 6 5 6 7 8 9 8 11 12 8 7 4 7 8 8 8 10 6 8 7 8 nan
nan 11 7 8 10 11 6 8 7 4 8 13 7 5 5 6 6 7 8 9 7 11 12 8 7 5 7 8 6 7 8 8 9 10 11 12 11 7 6 6 8 9 7 7 9 8 9 6 nan
nan 8 3 6 16 13 5 11 4 9 9 7 6 11 11 7 5 7 11 11 9 9 6 6 7 9 8 6 8 8 9 10 10 10 11 10 11 9 8 6 10 7 7 7 8 9 5 8 nan
nan 4 8 15 14 7 12 13 6 9 6 5 8 15 10 6 8 7 6 3 5 6 8 9 8 6 7 9 8 9 10 9 10 11 11 11 10 10 6 8 8 8 9 8 10 8 9 5 nan
nan 15 13 6 5 9 15 11 10 12 11 8 5 3 5 9 10 7 3 6 9 8 8 7 8 7 7 7 8 8 11 13 11 10 12 12 10 10 6 8 8 11 7 10 9 8 6 8 nan
nan 11 10 11 15 12 7 11 15 12 9 9 10 11 10 9 5 5 6 7 9 9 9 8 8 8 8 8 6 8 7 11 12 11 11 12 11 9 10 9 6 12 9 11 9 8 6 9 nan
nan 12 12 11 10 15 7 13 16 10 11 9 9 8 8 8 9 9 8 7 7 8 10 11 10 11 10 10 7 7 8 9 10 9 13 11 11 10 11 8 10 11 10 10 9 8 10 7 nan
nan 11 13 14 11 11 9 4 12 16 12 11 12 9 8 8 8 8 9 10 11 11 12 13 12 10 9 8 9 7 10 6 12 11 12 9 10 12 10 7 11 9 9 11 9 9 9 4 nan
nan 13 16 15 17 14 12 8 10 5 3 9 12 13 18 14 15 12 12 12 11 12 11 11 12 8 9 9 9 10 9 8 12 13 5 10 11 10 11 10 8 8 11 9 9 8 7 7 nan
nan 8 14 14 10 9 12 11 10 10 6 8 14 8 7 14 13 13 14 13 11 13 12 13 12 9 12 11 11 12 9 14 11 11 9 7 8 10 11 10 11 8 11 8 8 7 7 10 nan
nan 8 3 7 7 16 12 0 6 5 9 9 13 21 11 13 11 11 12 12 12 16 14 10 13 15 15 15 13 13 11 9 11 9 9 8 10 13 13 10 10 11 8 7 9 6 8 10 nan
nan 14 7 12 7 5 8 26 21 5 13 10 14 11 6 11 13 12 14 17 16 11 13 16 14 16 15 14 13 12 12 13 11 11 10 10 10 14 10 9 10 9 8 7 6 8 11 8 nan
nan 12 16 15 15 11 10 24 26 17 3 6 11 6 9 13 21 21 20 11 14 16 13 15 15 13 12 11 11 8 11 14 11 11 12 12 12 11 11 9 8 7 8 8 7 9 11 5 nan
nan 14 8 14 15 11 9 16 27 33 18 4 2 7 14 15 19 19 13 15 12 12 12 10 11 11 9 6 8 12 11 9 8 9 12 11 10 9 9 8 8 8 8 8 4 7 12 9 nan
nan nan nan nan nan nan nan nan nan nan nan nan nan nan nan nan nan nan nan nan nan nan nan nan nan nan nan nan nan nan nan nan nan nan nan nan nan nan nan nan nan nan nan nan nan nan nan nan nan
CAPE
0 0 0 0 0 0 0 0 0 0 0 0 0 0 14 112 56 196 10 1 1 340 688 1045 1829 1741 1358 1245 1623 1861 1962 2059 2122 2005 1754 1328 1055 592 168 33 0 0 0 0 0 0 0 0 0
0 0 0 0 0 0 0 0 0 0 0 0 0 2 38 106 117 117 68 26 79 766 646 82 1780 1801 1602 1228 1100 1341 1531 1658 1759 1701 1322 960 745 437 82 32 0 0 0 0 0 0 0 0 0
0 0 0 0 0 0 0 0 0 10 6 0 0 0 2 85 45 29 196 104 159 797 694 219 1711 1713 1754 1509 1195 1038 1082 1241 1347 1269 1128 903 700 567 215 54 5 0 0 0 0 0 0 0 0
0 0 0 0 0 0 0 2 3 42 1 0 0 0 0 35 52 12 131 123 486 750 616 1280 1548 1589 1711 1661 1391 1242 1094 1025 1070 1005 935 816 632 424 135 81 51 6 0 3 15 20 14 29 79
0 0 0 0 0 0 0 0 22 7 26 39 0 16 1 16 41 51 117 222 462 616 627 1454 1501 1542 1574 1637 1532 1375 1316 1161 1130 1090 932 651 491 223 144 117 56 34 27 18 26 26 64 84 115
0 0 0 0 0 0 0 0 0 0 17 58 28 88 36 105 151 6 14 146 190 375 590 1252 1528 1626 1528 1472 1376 1210 1112 1104 1046 884 757 530 325 252 183 160 128 138 155 144 98 109 199 273 388
0 0 0 0 0 0 0 0 0 0 0 78 117 109 167 146 174 0 0 34 89 244 543 1162 1660 1079 1600 1450 1258 1112 955 838 705 551 457 407 356 334 294 259 239 288 395 561 643 485 510 658 719
0 0 0 0 0 0 0 0 0 0 0 92 64 111 124 74 20 1 7 54 131 241 429 621 1728 539 362 399 1424 1220 1015 880 673 598 576 528 502 456 452 351 385 596 696 882 979 815 778 826 1112
0 0 0 0 0 0 0 0 0 0 0 54 32 81 50 25 164 69 69 132 131 183 345 645 1083 1036 372 113 469 1223 1114 1035 813 702 678 451 8 33 22 76 317 789 954 1058 1078 918 1057 1162 1198
0 0 0 0 0 0 0 0 0 0 0 0 35 0 0 85 164 101 81 145 166 190 273 658 1267 1280 991 201 426 751 192 210 168 58 138 105 79 71 10 92 424 817 1083 1142 1188 1325 1366 1238 650
0 0 0 0 0 0 0 0 0 0 0 2 68 1 1 2 102 203 139 159 129 120 211 278 2294 2389 1631 940 343 1290 1027 689 572 536 404 590 101 165 173 185 199 365 758 464 874 1080 1043 1002 916
0 0 0 0 0 6 0 0 0 0 0 0 72 110 26 9 0 1 0 11 26 17 0 0 196 2544 2830 1338 786 449 797 1300 808 652 1058 757 531 618 783 303 326 888 416 712 840 940 1215 1178 1477
0 0 0 0 0 0 0 0 0 0 0 0 0 22 2 0 0 6 0 0 0 1 1 15 36 2378 3048 3409 1425 1541 1369 1165 1386 975 1329 1309 595 932 565 917 475 853 418 526 1098 1336 1670 1823 1347
0 0 0 0 0 0 0 0 0 0 0 0 0 0 0 0 0 1 0 0 1 10 6 0 19 2645 3048 3127 3563 3302 3030 1750 1720 1583 1803 1788 1117 1195 1002 1325 1008 845 823 753 930 1287 1445 1431 1553
0 0 0 0 0 0 0 0 0 0 0 0 0 0 0 6 26 0 0 137 0 15 61 549 426 980 3533 3981 3733 2903 1465 1978 1443 1570 2717 2631 2142 1791 1710 1421 1139 904 1147 1699 1494 2011 1458 1395 1404
0 0 0 0 0 0 0 0 0 0 0 0 2 8 1 14 19 19 0 7 119 270 236 678 73 446 2849 3407 3010 2308 1478 1030 1135 1349 1664 2676 2844 2406 2392 1162 1293 1277 1254 1210 915 1030 875 1479 1372
0 0 0 0 0 0 0 0 0 0 0 1 4 10 7 30 60 121 3 39 0 30 137 439 776 150 1596 2354 1353 1634 2335 1382 1047 1185 1203 2569 2513 2318 2311 1646 1453 2068 1218 1082 1031 1129 1330 1352 1208
0 0 0 0 0 0 0 0 0 0 0 0 1 0 0 0 3 15 13 0 0 245 625 836 523 1041 1970 982 1839 530 445 1129 1399 1262 1368 2575 2387 1960 2577 1892 1910 1826 1229 1084 1022 1408 1185 1293 1153
0 0 0 0 0 0 0 0 0 0 0 0 0 0 2 12 0 0 2 0 0 154 376 868 902 1851 1052 112 124 106 101 878 1236 1517 2594 2391 2112 2223 2589 1798 2017 1805 1422 1484 1798 1450 1896 1493 1794
0 0 0 0 0 0 0 0 0 0 0 0 0 0 0 0 0 0 0 0 111 170 278 623 1144 1680 2021 569 982 398 1187 796 1289 1563 2397 2158 1785 2141 2197 2195 2045 2050 1323 2200 2079 1878 1197 1150 1897
0 0 0 0 0 2 0 0 0 0 0 0 0 0 0 0 0 0 0 7 48 49 257 324 841 1515 2035 1512 1259 2038 1930 2345 1594 1856 1732 1890 1726 1980 2208 1955 2240 2579 1726 1202 2016 1673 1858 1490 1799
3 0 0 0 4 3 0 1 0 0 0 0 0 0 0 0 0 0 0 0 2 2 4 260 670 1462 1960 2775 1032 2331 1591 1484 1567 1980 1973 1890 1930 1696 1841 1932 1935 2257 1530 1792 1550 1716 1989 2177 1741
8 4 3 1 3 13 2 5 0 0 0 0 0 0 0 0 0 0 0 0 0 0 3 201 849 1530 1735 1996 1697 956 2316 1535 1815 1861 2416 2276 2213 2059 1666 1839 1935 2000 1563 1944 2100 2712 2420 1791 1235
21 12 30 28 18 56 15 13 1 0 0 0 0 0 0 0 0 0 0 0 0 0 0 5 798 1269 1734 2142 2581 3396 3448 3056 2350 2324 1970 2128 1782 1724 1599 1570 1927 1884 1824 2940 2366 2475 1848 1631 1451
66 55 45 61 54 43 40 54 26 0 3 1 0 0 0 0 0 0 0 0 0 0 0 0 1 832 1769 1633 1907 2163 2960 4077 3728 2606 1646 1606 1502 1610 1829 2163 2244 1818 2624 2234 2087 1814 1608 1352 1028
96 120 119 64 67 64 45 54 25 13 13 1 0 0 0 0 0 0 0 0 0 0 78 468 796 1447 1704 1480 1878 2194 2693 2466 2689 2032 1661 1837 1785 2170 2400 2372 2706 2117 1858 1525 1622 1417 1130 1162 695
263 167 204 183 133 49 14 13 44 11 22 0 0 0 0 0 0 2 8 0 0 37 1085 1586 1795 1819 1669 1793 2084 2523 2412 3288 2341 3089 3190 2308 2946 2366 2150 2311 1970 1728 1442 1463 1517 892 734 1078 1210
241 202 204 228 139 82 117 45 81 34 26 2 1 0 0 257 351 150 19 65 895 1794 2174 2139 2083 2105 2159 2260 2407 2744 3110 3053 2644 3045 2256 2424 2817 2581 2106 1809 1661 1416 1253 1063 940 825 649 893 1419
16 43 162 189 44 118 173 138 55 42 0 4 1 0 379 895 592 284 1079 1625 2173 2396 2410 2455 2352 2308 2389 2534 2539 2539 2302 2270 2324 2140 2186 1972 2125 1560 1318 1198 1110 955 720 615 825 862 706 720 1066
203 230 152 104 189 217 41 0 65 276 103 57 10 3 325 929 1021 1116 1630 2089 2249 2330 2299 2338 2383 2313 2226 2223 2128 2122 2322 2200 2358 1684 1509 1329 1268 1116 906 710 531 329 308 621 760 758 661 729 809